Regional Weather Roundup
Issued by NWS

Home | Current Version | Previous Version | Graphics & Text | Print | Product List | Glossary On
Versions: 1 2 3 4 5 6 7 8 9 10 11 12 13 14 15 16 17 18 19 20 21 22 23 24 25 26 27 28 29 30 31 32 33 34 35 36 37 38 39 40 41 42 43 44 45 46 47 48 49 50
000
ASUS43 KBIS 301702
RWRND

NORTH DAKOTA REGIONAL WEATHER ROUNDUP
NATIONAL WEATHER SERVICE BISMARCK ND
1200 PM CDT THU JUL 30 2015

NOTE: "FAIR" INDICATES FEW OR NO CLOUDS BELOW 12,000 FEET WITH NO
SIGNIFICANT WEATHER AND/OR OBSTRUCTIONS TO VISIBILITY.


NDZ001>003-009>011-017-301800-
NORTHWEST NORTH DAKOTA

CITY           SKY/WX    TMP DP  RH WIND       PRES   REMARKS
WILLISTON      SUNNY     78  49  35 NW13      30.19R
MINOT          SUNNY     76  52  43 W14       30.12S
MINOT AFB      SUNNY     77  55  45 NW13      30.10S
$$

NDZ018>021-031>035-040>046-301800-
SOUTHWEST NORTH DAKOTA

CITY           SKY/WX    TMP DP  RH WIND       PRES   REMARKS
BISMARCK       SUNNY     79  52  38 N13       30.15S
DICKINSON      SUNNY     79  46  31 NW14      30.19R
GARRISON         N/A     74  54  49 NW16      30.15S
HETTINGER ARPT SUNNY     82  45  27 W10       30.21S
$$

NDZ004>008-012>016-024-026-027-054-301800-
NORTHEAST NORTH DAKOTA

CITY           SKY/WX    TMP DP  RH WIND       PRES   REMARKS
GRAND FORKS    MOSUNNY   79  55  43 NW17G24   30.00S
GRND FRKS AFB  SUNNY     78  57  47 NW16      30.02S
DEVILS LAKE    SUNNY     73  55  53 W16       30.06S
$$

NDZ022-023-025-028>030-036>039-047>053-301800-
SOUTHEAST NORTH DAKOTA

CITY           SKY/WX    TMP DP  RH WIND       PRES   REMARKS
FARGO          MOSUNNY   78  57  48 W13       30.05F
JAMESTOWN      SUNNY     76  55  48 W13       30.11S
$$




USA.gov is the U.S. government's official web portal to all federal, state and local government web resources and services.